www.pogodaiklimat.ru

Погода и климат >> Архив погоды >> Бангладеш >> Sandwip


ПОГОДА в Sandwip

  • Прогноз погоды в Sandwip
  • Монитор погоды в Sandwip
  • Климат города

АРХИВ ПОГОДЫ в Sandwip

Время (UTC), дата Ветер
(напр.,м/с)
 
Видим.   Явления Облачность Т
(С)
Тd
(С)
f
(%)
Тe
(С)
Тes
(С)
Комфортность P
(гПа)
Po
(гПа)
Тmin
(С)
Tmax
(С)
R
(мм)
R24
(мм)
S
(см)
03 14.05 ЮВ 1 6000 м 8/4 540 м
[Sc As trans]
+29.0 +25.0 79 +42 +48 опасность
перегрева
1010.8 1010.5 +22.3
06 14.05 Ю 1 6000 м 9/4 540 м
[Sc As op]
+30.7 +26.0 76 +46 +51 опасность
перегрева
1009.4 1009.1
09 14.05 Ю 1 6000 м 4/4 540 м
[Sc]
+31.0 +25.0 70 +44 +53 опасность
перегрева
1007.0 1006.8
12 14.05 Ю 1 5000 м 5/4 540 м
[Sc As trans]
+28.5 +25.0 81 +41 +41 опасность
перегрева
1006.9 1006.7 +32.0
15 14.05 Ю 1 5000 м зарница 10/5 500 м
[Cb calv As op]
+27.1 +25.0 88 +39 +39 очень
душно
1007.8 1007.6
18 14.05 штиль 0 4000 м {гроза} 8/4 540 м
[Sc As trans]
+26.5 +25.0 91 +38 +38 очень
душно
1008.8 1008.6
21 14.05 штиль 0 4000 м 9/4 540 м
[Sc As op]
+25.8 +25.0 95 +37 +37 очень
душно
1007.6 1007.4
00 15.05 штиль 0 5000 м гроза без осадков 9/5 540 м
[Cb calv As op]
+26.3 +25.0 93 +38 +38 очень
душно
1006.6 1006.4
03 15.05 штиль 0 6000 м {гроза, дождь} 5/4 540 м
[Sc As trans]
+28.0 +24.0 79 +39 +48 очень
душно
1008.5 1008.3 +23.0
06 15.05 Ю 1 6000 м {гроза, дождь} 3/0
[As trans]
+30.6 +25.0 72 +44 +64 опасность
перегрева
1008.0 1007.8 14
09 15.05 Ю 1 7000 м ясно +31.4 +25.0 69 +45 +60 опасность
перегрева
1006.0 1005.7
12 15.05 штиль 0 6000 м 1/1 540 м
[Sc]
+29.3 +25.0 78 +42 +43 опасность
перегрева
1005.3 1005.0 +31.6
15 15.05 штиль 0 5000 м 4/3 540 м
[Sc]
+27.7 +26.0 90 +41 +41 опасность
перегрева
1006.6 1006.4
18 15.05 штиль 0 4000 м 5/4 540 м
[Sc As trans]
+27.0 +26.0 94 +40 +40 очень
душно
1007.1
21 15.05 штиль 0 4000 м 6/4 540 м
[Sc As trans]
+26.7 +26.0 96 +40 +40 очень
душно
1005.9 1005.7
00 16.05 штиль 0 5000 м 6/4 540 м
[Sc As trans]
+26.3 +25.0 93 +38 +38 очень
душно
1004.9 1004.7
03 16.05 С 1 5000 м в посл. час гроза {дождь} 10/5 240 м
[Cb cap As op]
+23.5 +23.0 97 +31 +33 очень
душно
1009.3 1009.1 +22.7
06 16.05 Ю 1 6000 м в посл. час гроза {дождь} 10/4 540 м
[Sc As op]
+23.0 +22.0 94 +31 +34 очень
душно
1006.1 1005.9 23
09 16.05 ЮЗ 1 6000 м 5/0
[Ci fib]
+29.2 +23.0 69 +39 +52 опасность
солнечного
удара
1005.6 1005.4
12 16.05 ЮЗ 1 5000 м 9/4 540 м
[Sc As op]
+26.0 +20.0 70 +32 +32 очень
душно
1005.2 1005.0 +29.3
15 16.05 штиль 0 5000 м 6/4 540 м
[Sc As op]
+25.7 +25.0 96 +37 +37 очень
душно
1005.5 1005.3
21 16.05 штиль 0 4000 м 8/4 540 м
[Sc As op]
+25.1 +24.0 94 +35 +35 очень
душно
1006.2 1006.0
00 17.05 штиль 0 5000 м 9/4 540 м
[Sc As op]
+25.0 +24.0 94 +34 +34 очень
душно
1005.0 1004.8
03 17.05 ЮВ 1 6000 м 4/0
[Ac trans]
+30.5 +26.0 77 +46 +58 опасность
перегрева
1006.2 1006.0 +22.3
06 17.05 штиль 0 6000 м в посл. час гроза {дождь} 8/4 540 м
[Sc As op]
+24.7 +23.0 90 +33 +41 очень
душно
1006.5 1006.3 7
09 17.05 Ю 1 7000 м 4/0
[Ci fib]
+29.6 +26.0 81 +44 +58 опасность
перегрева
1004.6 1004.4
12 17.05 штиль 0 6000 м ясно +29.0 +26.0 84 +44 +44 опасность
перегрева
1003.8 1003.6 +31.3
15 17.05 штиль 0 5000 м ясно +27.0 +26.0 94 +40 +40 очень
душно
1005.3 1005.1
21 17.05 штиль 0 4000 м 4/4 540 м
[Sc]
+26.0 +25.0 94 +37 +37 очень
душно
1005.5 1005.3
00 18.05 штиль 0 5000 м 8/4 540 м
[Sc As op]
+25.8 +25.0 95 +37 +37 очень
душно
1005.1 1004.9
03 18.05 Ю 1 6000 м 5/4 540 м
[Sc As trans]
+27.8 +24.0 80 +39 +47 очень
душно
1006.0 1005.8 +23.5
06 18.05 Ю 1 5000 м 10/5 500 м
[Cb calv As op]
+29.2 +24.0 74 +41 +43 опасность
перегрева
1005.6 1005.4
09 18.05 СЗ 1 4000 м гроза, ливневой дождь 10/5 480 м
[Cb calv As op]
+24.0 +23.0 94 +32 +33 очень
душно
1004.5 1004.3
12 18.05 штиль 0 5000 м в посл. час гроза {дождь} 10/5 480 м
[Cb calv As op]
+24.0 +23.0 94 +32 +32 очень
душно
1003.7 1003.5 +31.0 12
15 18.05 штиль 0 4000 м 10/5 480 м
[Cb calv As op]
+25.0 +24.0 94 +34 +34 очень
душно
1004.1 1003.9
18 18.05 штиль 0 4000 м 10/4 540 м
[Sc As op]
+24.6 +24.0 96 +34 +34 очень
душно
1006.2 1006.0

 

Местоположение метеостанции Sandwip (Бангладеш): широта 22.48 долгота 91.43 высота над уровнем моря 6 м.

В архиве по умолчанию представлена погода в Sandwip за последнюю неделю. Архивные данные за месяц целиком и за предыдущие месяцы, начиная с января 2011 года, Вы можете получить, выбрав интересующий диапазон дат из раскрывающегося списка и нажав кнопку "Ввод!".


*Определитесь, кто Вы:
робот инопланетянин человек

Внимание! Время в таблицах - всемирное. Для получения местного времени необходимо прибавить поправку, которая в Sandwip равна 6.5 ч.

Смотрите также архив погоды в соседних городах и на ближайших метеорологических станциях:

Погода в Sitakundu (Бангладеш) (30 км)
Погода в Hatia (Бангладеш) (34 км)
Погода в Chittagong (Бангладеш) (46 км)
Погода в Maijdicourt (Бангладеш) (55 км)
Погода в Feni (Бангладеш) (61 км)
Погода в Rangamati (Бангладеш) (79 км)
Погода в Bhola (Бангладеш) (83 км)
Погода в Kutubdia (Бангладеш) (85 км)
Погода в Comilla (Бангладеш) (109 км)
Погода в Barisal (Бангладеш) (113 км)

Пояснения к столбцам:

Ветер - указаны скорость ветра в м/с - средняя за 10 мин, порывы в срок и между сроками (в фигурных скобках) и направление, откуда дует ветер: С - северный, СВ - северо-восточный, В - восточный, ЮВ - юго-восточный, Ю - южный, ЮЗ - юго-западный, З - западный, СЗ - северо-западный.
Видимость - горизонтальная дальность видимости в метрах или километрах. При видимости от 1 до 10 км при отсутствии осадков обычно наблюдается дымка, при ухудшении видимости до 1 км и менее - туман. В сухую погоду видимость может ухудшаться дымом, пылью или мглою.
Явления - указаны атмосферные явления, наблюдавшиеся в срок или в последний час перед сроком; фигурными скобками обозначены явления, наблюдавшиеся между сроками (за 1-3 часа до срока); квадратными скобками обозначены град или гололедные отложения с указанием их диаметра в мм.
Облачность - указаны через наклонную черту общая и нижняя облачность в баллах и высота нижней границы облаков в метрах; квадратными скобками обозначены формы облаков: Ci - перистые, Cs - перисто-слоистые, Cc - перисто-кучевые, Ac - высококучевые, As - высокослоистые, Sc - слоисто-кучевые, Ns - слоисто-дождевые, Cu - кучевые, Cb - кучево-дождевые. Подробнее классификацию облаков см. в Атласе облаков (PDF).
T - Температура воздуха - температура, измеренная на высоте 2 м над землей.
Td - Температура точки росы - температура, при понижении до которой содержащийся в воздухе водяной пар достигнет насыщения.
f - Относительная влажность воздуха - влажноcть воздуха, измеренная на высоте 2 м над землей.
Te - Эффективная температура - температура, которую ощущает одетый по сезону человек в тени. Характеристика душности погоды. При расчете учитывается влияние влажности воздуха и скорости ветра на теплоощущения человека.
Tes - Эффективная температура на солнце - температура, которую ощущает человек, с поправкой на солнечный нагрев. Характеристика знойности погоды. Зависит от высоты солнца над горизонтом, облачности и скорости ветра. Ночью, в пасмурную погоду, а также при ветре 12 м/с и более поправка равна нулю.
P - Атмосферное давление - приведенное к уровню моря атмосферное давление.
Po - Атмосферное давление - измеренное на уровне метеостанции атмосферное давление.
Tmin - Минимальная температура - минимум температуры воздуха на высоте 2 м над землей.
Tmax - Максимальная температура - максимум температуры воздуха на высоте 2 м над землей.
R - Количество осадков - Количество выпавших осадков за период времени, мм. При наведении курсора мыши на число - период времени, за который выпало указанное количество осадков.
R24 - Количество осадков - Количество выпавших осадков за 24 часа, мм.
S - Снежный покров - Высота снежного покрова, см. При наведении курсора мыши на число - состояние снежного покрова и степень покрытия местности в баллах.